SCP
6 5 4 4 4 3 2 3 3 4 4 4 3 3 3 2 2 2 2 2 1 1 1 1 2 2 2 2 2 2 3 2 1 1 2 2 2 2 2 2 2 2 2
7 6 4 4 5 4 3 3 4 4 4 4 3 3 3 2 2 2 2 2 2 2 2 2 2 2 2 3 3 3 3 2 1 1 2 2 2 3 3 3 3 3 2
7 6 5 5 6 5 4 3 3 3 4 4 4 3 3 3 3 3 3 2 2 2 2 2 2 2 2 3 3 3 3 2 1 1 2 2 2 3 4 4 3 3 2
6 6 6 6 6 5 5 4 3 3 3 4 4 3 3 3 3 3 3 3 3 3 2 2 2 2 2 2 3 3 3 3 2 1 1 1 2 3 4 4 3 2 2
5 6 7 6 6 6 5 4 3 3 3 4 4 4 4 3 3 2 2 2 3 3 3 2 2 2 2 2 2 3 3 3 2 2 2 2 2 3 4 3 2 1 1
6 7 8 9 8 7 5 4 4 3 3 4 4 4 4 3 2 1 1 2 2 2 2 2 2 2 1 1 1 1 2 2 2 2 2 2 2 3 3 2 2 1 1
9 11 13 13 10 7 5 4 4 3 3 4 4 4 4 3 1 1 1 1 2 2 2 2 2 1 1 1 1 1 1 1 1 1 1 2 2 2 2 2 2 1 1
13 15 17 16 12 8 6 5 4 4 4 4 4 4 3 2 1 1 1 1 1 2 2 2 2 2 1 1 1 2 2 2 1 1 1 1 1 2 2 2 1 1 1
15 17 18 17 13 9 6 5 4 4 3 3 3 3 3 2 1 1 1 1 1 2 2 2 2 2 1 1 1 2 2 2 1 1 1 1 1 1 1 1 1 1 0
15 17 18 17 14 10 6 4 4 3 3 3 3 3 3 2 2 1 1 1 2 2 3 2 2 1 1 1 1 1 1 1 1 1 1 0 0 0 0 1 1 0 0
15 16 16 15 13 9 6 5 4 4 3 3 3 4 3 3 2 1 0 1 1 2 3 2 2 1 0 0 1 1 1 1 2 2 1 0 0 0 0 0 0 0 0
16 16 14 13 10 8 6 5 5 4 4 4 4 4 4 3 2 1 0 0 1 1 2 2 1 0 0 0 0 0 0 1 2 2 1 0 0 0 0 0 0 0 0
15 14 12 10 8 7 7 6 5 5 4 4 4 4 4 3 2 1 0 0 0 0 1 1 0 0 0 0 0 0 0 1 1 1 1 0 0 0 0 0 0 0 0
11 10 10 9 8 7 7 6 5 5 4 4 4 4 3 3 2 1 1 0 0 0 0 0 0 0 0 0 0 0 0 0 0 0 0 0 0 0 0 0 0 0 0
8 7 7 7 6 6 6 5 4 4 3 3 3 3 3 2 2 1 1 0 0 0 0 1 1 0 0 0 0 0 0 0 0 0 0 0 0 0 0 0 0 0 0
6 5 5 4 5 5 5 4 3 2 1 1 1 2 2 1 1 1 0 0 0 0 0 1 1 1 1 0 0 0 0 0 0 0 0 0 0 0 0 0 0 0 0
5 4 3 3 3 4 4 4 3 2 1 0 0 1 1 0 0 0 0 0 0 0 0 0 1 1 1 1 0 0 0 0 0 0 0 0 0 0 0 0 0 0 0
3 3 3 3 3 3 3 3 3 2 2 1 0 0 0 0 0 0 0 0 0 0 0 0 0 0 0 0 0 0 0 0 0 0 0 0 0 0 0 0 0 0 0
3 2 2 3 3 2 2 2 2 2 2 2 1 0 0 0 0 0 0 0 0 0 0 0 0 0 0 0 0 0 0 0 0 0 0 0 0 0 0 0 0 0 0
2 2 2 2 2 2 2 2 1 2 2 2 1 1 0 0 0 0 0 0 0 0 0 0 0 0 0 0 0 0 0 0 0 0 0 0 0 0 0 0 0 0 0
2 2 1 1 2 2 2 1 1 1 1 2 1 1 0 0 0 0 0 0 0 0 0 0 0 0 0 0 0 0 0 0 0 0 0 0 0 0 0 0 0 0 0
2 2 1 1 1 1 1 1 1 1 1 1 1 0 0 0 0 0 0 0 0 0 0 0 0 0 0 0 0 0 0 0 0 0 0 0 0 0 0 0 0 0 0
2 2 1 1 1 1 1 0 0 0 0 1 0 0 0 0 0 0 0 0 0 0 0 0 0 0 0 0 0 0 0 0 0 0 0 0 0 0 0 0 0 0 0
2 1 1 1 1 1 0 0 0 0 0 0 0 0 0 0 0 0 0 0 0 0 0 0 0 0 0 0 0 0 0 0 0 0 0 0 0 0 0 0 0 0 0
2 2 2 1 1 1 0 0 0 0 0 0 0 0 0 0 0 0 0 0 0 0 0 0 0 0 0 0 0 0 0 0 0 0 0 0 0 0 0 0 0 0 0
2 2 2 2 1 1 1 0 0 0 0 0 0 0 0 0 0 0 0 0 0 0 0 0 0 0 0 0 0 0 0 0 0 0 0 0 0 0 0 0 0 0 0
Wind_Speed
6 5 4 4 4 4 3 3 3 3 3 3 4 4 4 4 4 4 4 3 4 4 4 4 4 3 3 2 2 2 2 2 3 2 2 3 4 6 5 5 6 6 6
6 5 4 3 4 4 3 3 3 3 3 3 4 4 4 4 3 4 5 4 4 4 4 3 3 3 3 3 2 3 2 2 4 5 3 3 4 5 6 5 6 6 5
6 5 5 4 3 3 3 2 3 3 3 3 3 3 3 3 3 3 3 3 3 3 3 3 3 3 3 3 3 3 2 3 3 5 4 3 3 4 5 5 5 4 6
6 6 5 4 3 3 3 2 2 2 2 2 2 2 2 2 2 2 2 2 2 1 1 2 2 3 3 3 3 3 2 3 4 4 4 4 4 4 5 5 4 3 4
6 6 5 4 3 3 2 2 2 2 2 2 2 2 1 2 1 1 2 2 2 1 1 1 1 1 0 1 2 2 3 3 4 5 5 4 4 5 5 4 5 4 3
5 5 5 4 3 3 2 2 2 2 2 2 2 1 1 0 2 1 0 1 1 1 1 1 1 1 2 3 4 3 3 4 4 4 4 6 6 5 5 5 5 5 3
5 4 4 4 4 3 3 3 2 2 2 2 1 2 2 2 2 3 2 0 0 1 1 1 1 1 2 3 4 4 3 2 3 3 4 5 6 6 6 6 5 3 3
5 5 4 4 4 4 3 3 2 2 2 2 2 2 2 3 3 3 2 0 1 1 1 1 1 1 1 3 4 4 4 3 2 2 3 3 4 4 5 5 6 4 3
6 5 5 4 4 4 3 3 2 2 2 2 2 2 3 3 4 3 2 1 2 1 1 2 2 3 5 4 4 4 4 3 7 8 7 7 8 8 6 5 5 5 3
5 4 4 4 4 4 3 3 2 2 2 2 2 2 3 3 3 2 1 1 2 1 2 3 5 4 4 4 3 4 4 3 4 5 6 6 6 7 6 4 4 5 4
3 3 3 3 3 3 3 2 2 2 2 2 2 2 3 3 4 2 1 0 1 2 2 2 3 5 4 3 2 3 5 4 4 5 5 5 4 3 3 3 2 3 3
4 3 3 3 3 3 3 3 2 2 2 2 2 2 2 3 3 3 3 2 1 1 2 2 3 4 4 3 3 4 5 5 4 4 4 4 4 4 4 4 3 3 2
3 3 3 2 2 3 3 2 2 2 2 2 3 3 3 3 4 4 4 4 3 2 3 5 5 5 5 4 4 4 3 2 3 4 4 3 3 4 4 3 3 3 3
3 2 2 2 2 2 1 1 1 1 2 2 2 2 2 3 3 3 3 3 5 4 4 5 5 4 3 4 3 2 1 1 3 3 4 4 4 4 4 4 4 4 3
2 1 2 2 2 2 2 3 3 4 2 1 1 0 1 2 2 3 3 3 3 4 4 3 3 2 2 2 2 2 2 2 2 2 3 4 4 4 4 3 3 3 3
1 1 1 1 2 2 3 3 8 6 6 6 5 3 3 4 5 5 5 5 6 6 4 3 3 3 3 3 3 3 2 2 2 3 3 4 4 4 4 3 3 3 3
1 0 1 0 1 1 1 2 2 4 6 7 7 6 6 6 6 5 5 6 6 5 3 3 3 3 3 3 3 3 3 3 2 2 3 3 3 3 3 3 3 2 2
1 0 1 0 0 0 1 1 1 2 2 2 4 6 6 6 6 5 5 5 3 2 3 3 3 3 2 2 3 3 3 3 3 3 3 3 3 3 3 3 3 3 3
1 1 1 1 0 0 0 0 1 1 2 3 3 3 4 4 4 3 4 2 3 3 3 2 2 2 2 2 2 2 2 3 3 3 3 3 3 3 3 3 3 4 2
1 2 1 1 0 0 0 1 1 1 1 2 3 3 3 3 2 2 2 2 2 2 2 2 2 2 2 2 2 2 3 3 3 3 3 3 3 2 3 3 3 3 3
1 2 1 0 0 0 1 1 1 1 1 2 2 3 4 3 3 3 3 3 2 2 2 2 2 2 2 2 2 3 3 3 3 3 3 3 3 3 2 2 3 2 2
1 1 1 1 1 1 1 1 1 1 2 2 2 4 5 2 2 2 3 3 3 2 2 2 2 2 2 3 3 3 3 3 3 3 3 3 3 2 2 3 3 3 2
1 1 1 2 1 2 1 1 1 1 1 2 2 3 3 2 1 1 2 2 2 2 2 2 2 2 2 3 3 3 3 3 3 3 3 3 3 3 3 3 3 3 3
1 1 1 2 1 1 1 2 2 1 1 2 2 2 3 2 1 1 1 1 1 2 2 2 2 3 4 3 3 3 3 2 3 3 4 3 3 2 2 2 3 4 4
2 2 2 2 2 1 1 1 1 1 1 2 2 2 3 3 3 2 2 2 2 2 3 3 2 3 5 5 4 3 4 4 3 2 2 2 2 2 2 3 3 4 4
2 2 2 2 2 1 1 1 1 1 1 1 2 2 2 3 3 3 3 3 3 3 3 3 4 4 4 5 5 6 7 6 4 2 1 2 2 3 3 3 5 5 4
Wind_Direction
176 184 184 184 191 201 216 224 220 210 199 201 200 209 213 213 214 211 230 226 215 217 229 225 220 237 254 256 230 208 202 175 158 133 115 119 119 123 125 124 124 121 124
170 173 177 179 182 200 208 207 203 200 203 208 208 210 217 211 211 210 225 226 220 221 228 230 229 233 234 249 245 228 214 183 158 152 151 150 133 132 131 132 132 131 125
168 171 173 183 186 193 197 186 186 196 206 208 203 205 217 214 215 216 222 237 235 233 230 225 230 233 240 235 230 229 209 190 158 155 157 152 142 138 129 126 119 119 128
168 168 168 177 181 176 173 170 180 193 198 199 199 203 219 218 211 210 222 231 233 253 261 246 240 235 239 231 224 213 196 169 154 151 151 154 151 148 144 144 138 140 137
165 165 166 168 163 158 161 170 174 195 204 181 192 204 212 210 202 204 214 207 188 204 261 275 251 182 235 236 226 194 173 164 162 163 163 159 163 165 168 166 156 147 128
161 160 155 159 157 158 160 173 172 182 186 173 172 160 146 113 76 80 30 159 166 180 199 231 208 128 94 102 103 111 137 167 174 176 177 173 173 171 163 163 158 159 161
160 160 160 160 160 160 170 172 167 168 165 160 146 132 121 94 77 78 48 339 157 178 203 230 235 130 113 114 102 96 90 110 163 182 177 173 168 173 168 167 167 165 160
168 167 165 170 170 164 164 158 151 150 155 146 137 136 128 102 89 85 52 129 125 70 57 92 121 128 104 110 110 97 77 58 87 130 147 155 150 155 165 160 155 135 112
172 171 171 173 169 166 166 154 150 155 158 158 144 140 127 106 85 75 44 128 115 101 84 64 82 88 84 103 117 118 107 86 70 81 92 102 107 113 123 138 152 152 150
170 165 164 165 168 171 168 163 161 163 171 162 135 128 123 113 97 81 48 181 142 123 94 82 73 94 103 107 130 137 134 129 117 103 99 105 115 122 126 140 156 163 150
151 150 157 163 165 166 160 156 158 166 165 155 138 135 129 123 120 101 97 144 151 143 128 105 84 93 102 110 128 135 144 142 135 131 126 123 123 127 129 118 120 146 148
136 145 150 150 165 154 148 150 157 171 176 169 163 163 148 133 111 117 118 118 85 105 108 104 102 106 103 99 109 126 137 144 142 139 137 139 141 139 131 124 114 104 96
123 130 129 130 122 119 140 152 173 187 197 197 189 192 174 138 120 117 120 116 107 98 97 108 119 125 123 110 116 129 143 151 146 145 146 145 138 134 133 131 125 112 102
126 127 133 140 134 123 124 156 194 208 213 210 213 199 166 149 145 146 145 132 120 118 117 118 117 109 104 111 127 146 180 148 149 146 142 137 135 143 151 153 154 153 142
116 136 159 160 143 117 80 40 27 49 17 339 306 264 186 168 137 138 152 159 155 138 139 148 151 148 145 153 166 175 170 162 148 144 144 148 153 157 159 159 163 166 158
129 139 183 158 139 142 135 103 56 62 59 58 55 59 76 93 123 127 125 125 127 140 152 167 172 178 182 183 180 179 185 183 173 160 156 161 164 163 162 166 175 177 160
44 38 296 193 145 153 155 153 136 84 65 59 60 72 99 120 117 121 124 130 142 155 188 183 184 191 193 188 186 187 185 177 177 172 171 166 160 161 162 165 167 160 148
311 96 317 285 198 173 174 171 165 163 146 107 74 87 108 118 121 126 129 130 151 195 219 192 184 187 193 192 187 190 177 172 174 177 171 164 164 168 166 166 162 162 165
340 8 3 354 35 79 88 134 137 140 132 125 116 102 108 119 118 127 151 188 186 196 207 206 195 185 188 188 177 168 167 171 170 170 175 175 174 173 175 176 159 155 173
77 45 354 330 53 124 137 106 93 101 119 133 137 139 149 153 153 160 191 224 226 221 205 200 207 200 184 166 162 168 173 171 170 186 187 180 178 173 169 169 171 178 190
137 128 170 154 75 76 95 100 107 118 135 139 141 143 163 176 169 171 185 208 219 227 218 192 179 186 180 172 172 179 182 182 188 189 180 174 177 172 173 177 181 188 189
157 146 145 122 109 93 95 115 127 140 162 152 145 149 171 197 176 180 191 199 206 211 203 180 180 185 185 179 173 176 188 190 182 176 176 174 170 172 184 187 180 178 185
168 144 123 116 116 125 142 133 120 122 135 135 135 140 164 192 190 194 195 192 188 187 187 184 189 189 180 174 175 177 189 188 177 173 172 175 177 183 187 183 187 195 202
117 117 111 113 120 129 121 115 120 132 136 140 146 149 159 174 193 204 217 212 181 177 181 181 189 196 188 178 180 180 180 169 166 173 175 178 179 179 180 189 206 217 221
132 123 121 122 127 125 115 118 124 132 153 166 161 164 172 183 197 202 207 216 198 185 191 192 197 205 198 187 179 162 136 125 117 115 151 174 191 198 206 216 226 231 230
119 121 119 114 112 116 126 138 153 190 203 193 180 185 196 202 206 208 209 213 210 201 202 205 201 193 187 186 185 162 151 152 152 154 185 208 218 222 225 237 245 246 243